Afton Municipal Airport, WY

12:55 AM MST on December 16, 2019 (GMT -0700)
Afton Municipal

Weather History for KAFO - August, 2019

Change the Weather History Date:

Sunday, August 25, 2019

  Actual Average Record
Temperature  
Mean Temperature 59 °F -  
Max Temperature 77 °F 79 °F 87 °F (2015)
Min Temperature 41 °F 38 °F 32 °F (2016)
Degree Days  
Heating Degree Days 6    
Growing Degree Days 9 (Base 50)    
Moisture  
Dew Point 35 °F    
Average Humidity 43    
Maximum Humidity 81    
Minimum Humidity 19    
Precipitation  
Precipitation 0.00 in - - ()
Sea Level Pressure  
Sea Level Pressure 30.11 in    
Wind  
Wind Speed 5 mph ()    
Max Wind Speed 26 mph    
Max Gust Speed 36 mph    
Visibility 10.0 miles    
Events      
Averages and records for this station are not official NWS values.
T = Trace of Precipitation, MM = Missing Value Source: Averaged Metar Reports

Daily Weather History Graph

Daily Weather History Graph

Search for Another Location

Airport or City:

Astronomy

Aug. 25, 2019 Rise Set
Actual Time 6:40 AM MDT 8:10 PM MDT
Civil Twilight 6:11 AM MDT 8:39 PM MDT
Nautical Twilight 5:35 AM MDT 9:15 PM MDT
Astronomical Twilight 4:57 AM MDT 9:53 PM MDT
Moon 1:14 AM MDT (8/25) 4:39 PM MDT (8/25)
Length of Visible Light 14h 28m
Length of Day
13h 29m
Waning Crescent, 28% of the Moon is Illuminated
Aug 25
Waning Crescent
Aug 30
New
Sep 5
First Quarter
Sep 13
Full
Sep 21
Last Quarter

Hourly Weather History & Observations

Time (MDT) Temp. Windchill Dew Point Humidity Pressure Visibility Wind Dir Wind Speed Gust Speed Precip Events Conditions
12:15 AM 53.6 °F - 39.2 °F 58% 30.10 in 10.0 mi Calm Calm - N/A   Clear
12:35 AM 53.6 °F - 39.2 °F 58% 30.10 in 10.0 mi Calm Calm - N/A   Clear
12:55 AM 53.6 °F - 37.4 °F 54% 30.10 in 10.0 mi Calm Calm - N/A   Clear
1:15 AM 51.8 °F - 39.2 °F 62% 30.10 in 10.0 mi SSW 4.6 mph - N/A   Clear
1:35 AM 50.0 °F - 37.4 °F 62% 30.09 in 10.0 mi South 4.6 mph - N/A   Clear
1:55 AM 50.0 °F - 39.2 °F 66% 30.09 in 10.0 mi SSE 3.5 mph - N/A   Clear
2:15 AM 50.0 °F - 39.2 °F 66% 30.09 in 10.0 mi Calm Calm - N/A   Clear
2:35 AM 48.2 °F - 37.4 °F 66% 30.09 in 10.0 mi Calm Calm - N/A   Clear
2:55 AM 48.2 °F - 37.4 °F 66% 30.09 in 10.0 mi WSW 3.5 mph - N/A   Clear
3:15 AM 46.4 °F - 37.4 °F 71% 30.10 in 10.0 mi Calm Calm - N/A   Clear
3:35 AM 44.6 °F 42.2 °F 35.6 °F 71% 30.10 in 10.0 mi SSE 4.6 mph - N/A   Clear
3:55 AM 44.6 °F - 37.4 °F 76% 30.10 in 7.0 mi Calm Calm - N/A   Clear
4:15 AM 44.6 °F 42.2 °F 35.6 °F 71% 30.10 in 10.0 mi SSE 4.6 mph - N/A   Clear
4:35 AM 44.6 °F 43.1 °F 37.4 °F 76% 30.10 in 10.0 mi SSW 3.5 mph - N/A   Mostly Cloudy
4:55 AM 46.4 °F - 37.4 °F 71% 30.10 in 10.0 mi Calm Calm - N/A   Overcast
5:15 AM 48.2 °F - 35.6 °F 62% 30.10 in 10.0 mi Calm Calm - N/A   Mostly Cloudy
5:35 AM 44.6 °F - 37.4 °F 76% 30.10 in 10.0 mi Calm Calm - N/A   Scattered Clouds
5:55 AM 44.6 °F 42.2 °F 35.6 °F 71% 30.10 in 10.0 mi SSE 4.6 mph - N/A   Clear
6:15 AM 42.8 °F - 35.6 °F 76% 30.11 in 10.0 mi Calm Calm - N/A   Clear
6:35 AM 41.0 °F 39.0 °F 35.6 °F 81% 30.12 in 10.0 mi North 3.5 mph - N/A   Clear
6:55 AM 41.0 °F - 35.6 °F 81% 30.13 in 10.0 mi Calm Calm - N/A   Clear
7:15 AM 41.0 °F 38.0 °F 35.6 °F 81% 30.13 in 10.0 mi SSE 4.6 mph - N/A   Clear
7:35 AM 42.8 °F 41.1 °F 35.6 °F 76% 30.14 in 10.0 mi SW 3.5 mph - N/A   Clear
7:55 AM 50.0 °F - 37.4 °F 62% 30.14 in 10.0 mi SW 3.5 mph - N/A   Clear
8:15 AM 51.8 °F - 37.4 °F 58% 30.14 in 10.0 mi Calm Calm - N/A   Clear
8:35 AM 55.4 °F - 39.2 °F 54% 30.13 in 10.0 mi Calm Calm - N/A   Clear
8:55 AM 59.0 °F - 41.0 °F 51% 30.14 in 10.0 mi WNW 3.5 mph - N/A   Clear
9:15 AM 60.8 °F - 39.2 °F 45% 30.14 in 10.0 mi Calm Calm - N/A   Clear
9:35 AM 64.4 °F - 37.4 °F 37% 30.13 in 10.0 mi Calm Calm - N/A   Clear
9:55 AM 68.0 °F - 41.0 °F 37% 30.13 in 10.0 mi Calm Calm - N/A   Clear
10:15 AM 69.8 °F - 41.0 °F 35% 30.13 in 10.0 mi Calm Calm - N/A   Clear
10:35 AM 73.4 °F - 41.0 °F 31% 30.13 in 10.0 mi West 3.5 mph - N/A   Clear
10:55 AM 73.4 °F - 37.4 °F 27% 30.13 in 10.0 mi WNW 11.5 mph 20.7 mph N/A   Clear
11:15 AM 73.4 °F - 35.6 °F 25% 30.13 in 10.0 mi West 12.7 mph 23.0 mph N/A   Clear
11:35 AM 75.2 °F - 37.4 °F 25% 30.13 in 10.0 mi WSW 13.8 mph 17.3 mph N/A   Clear
11:55 AM 75.2 °F - 37.4 °F 25% 30.13 in 10.0 mi WSW 10.4 mph 18.4 mph N/A   Scattered Clouds
12:15 PM 75.2 °F - 35.6 °F 24% 30.12 in 10.0 mi SW 13.8 mph 19.6 mph N/A   Clear
12:35 PM 75.2 °F - 35.6 °F 24% 30.11 in 10.0 mi West 13.8 mph 19.6 mph N/A   Clear
12:55 PM 77.0 °F - 33.8 °F 21% 30.10 in 10.0 mi West 9.2 mph 16.1 mph N/A   Clear
1:15 PM 77.0 °F - 32.0 °F 19% 30.10 in 10.0 mi WNW 16.1 mph 21.9 mph N/A   Clear
1:55 PM 71.6 °F - 30.2 °F 22% 30.11 in 10.0 mi West 12.7 mph 21.9 mph N/A   Overcast
2:15 PM 71.6 °F - 32.0 °F 23% 30.11 in 10.0 mi WNW 20.7 mph 26.5 mph N/A   Overcast
2:35 PM 77.0 °F - 33.8 °F 21% 30.11 in 10.0 mi West 16.1 mph 28.8 mph N/A   Mostly Cloudy
2:55 PM 77.0 °F - 32.0 °F 19% 30.11 in 10.0 mi West 23.0 mph 29.9 mph N/A   Scattered Clouds
3:15 PM 77.0 °F - 32.0 °F 19% 30.11 in 10.0 mi West 26.5 mph 35.7 mph N/A   Clear
3:35 PM 77.0 °F - 32.0 °F 19% 30.11 in 10.0 mi West 17.3 mph 28.8 mph N/A   Scattered Clouds
3:55 PM 77.0 °F - 32.0 °F 19% 30.10 in 10.0 mi West 12.7 mph 21.9 mph N/A   Scattered Clouds
4:15 PM 75.2 °F - 32.0 °F 21% 30.10 in 10.0 mi WSW 10.4 mph 25.3 mph N/A   Mostly Cloudy
4:35 PM 73.4 °F - 32.0 °F 22% 30.10 in 10.0 mi SW 12.7 mph 25.3 mph N/A   Overcast
4:55 PM 75.2 °F - 32.0 °F 21% 30.10 in 10.0 mi West 16.1 mph 31.1 mph N/A   Mostly Cloudy
5:15 PM 75.2 °F - 33.8 °F 22% 30.10 in 10.0 mi West 18.4 mph 26.5 mph N/A   Clear
5:35 PM 73.4 °F - 33.8 °F 23% 30.10 in 10.0 mi West 15.0 mph 20.7 mph N/A   Clear
5:55 PM 73.4 °F - 33.8 °F 23% 30.10 in 10.0 mi WSW 16.1 mph 24.2 mph N/A   Clear
6:35 PM 71.6 °F - 32.0 °F 23% 30.09 in 10.0 mi WSW 10.4 mph - N/A   Clear
6:55 PM 71.6 °F - 35.6 °F 27% 30.09 in 10.0 mi West 4.6 mph - N/A   Clear
7:15 PM 69.8 °F - 33.8 °F 27% 30.09 in 10.0 mi WSW 5.8 mph - N/A   Clear
7:35 PM 69.8 °F - 32.0 °F 25% 30.09 in 10.0 mi WSW 3.5 mph - N/A   Clear
7:55 PM 66.2 °F - 33.8 °F 30% 30.09 in 10.0 mi WNW 11.5 mph 16.1 mph N/A   Clear
8:15 PM 64.4 °F - 33.8 °F 32% 30.10 in 10.0 mi West 5.8 mph - N/A   Clear
8:35 PM 62.6 °F - 33.8 °F 34% 30.11 in 10.0 mi Calm Calm - N/A   Clear
8:55 PM 62.6 °F - 33.8 °F 34% 30.12 in 10.0 mi WNW 3.5 mph - N/A   Clear
9:15 PM 59.0 °F - 32.0 °F 36% 30.13 in 10.0 mi Calm Calm - N/A   Clear
9:35 PM 59.0 °F - 32.0 °F 36% 30.13 in 10.0 mi West 9.2 mph - N/A   Clear
9:55 PM 59.0 °F - 33.8 °F 39% 30.13 in 10.0 mi SW 5.8 mph - N/A   Clear
10:15 PM 55.4 °F - 32.0 °F 41% 30.13 in 10.0 mi WSW 10.4 mph - N/A   Clear
10:35 PM 60.8 °F - 32.0 °F 34% 30.13 in 10.0 mi West 3.5 mph 19.6 mph N/A   Clear
10:55 PM 60.8 °F - 30.2 °F 31% 30.14 in 10.0 mi NE 10.4 mph 23.0 mph N/A   Clear
11:15 PM 59.0 °F - 30.2 °F 34% 30.13 in 10.0 mi North 4.6 mph - N/A   Clear
11:35 PM 60.8 °F - 28.4 °F 29% 30.13 in 10.0 mi NE 5.8 mph - N/A   Clear
11:55 PM 59.0 °F - 28.4 °F 31% 30.13 in 10.0 mi NE 6.9 mph - N/A   Clear